Weather History for Pecos, TX

Change the Weather History Date:

Friday, April 25, 2014

  Actual Average Record
Temperature  
Mean Temperature 71 °F -  
Max Temperature 94 °F 87 °F 103 °F (1951)
Min Temperature 48 °F 51 °F 38 °F (1935)
Cooling Degree Days 6    
Growing Degree Days 21 (Base 50)    
Moisture  
Dew Point 35 °F    
Average Humidity 33    
Maximum Humidity 72    
Minimum Humidity 11    
Precipitation  
Precipitation 0.00 in - - ()
Sea Level Pressure  
Sea Level Pressure 29.88 in    
Wind  
Wind Speed 4 mph (South)    
Max Wind Speed 17 mph    
Max Gust Speed 25 mph    
Visibility 10 miles    
Events      
Averages and records for this station are not official NWS values.
T = Trace of Precipitation, MM = Missing Value Source: NWS Daily Summary

Daily Weather History Graph

Daily Weather History Graph

Search for Another Location

Airport:

Trip Planner

Search our weather history database for the weather conditions in past years. The results will help you decide how hot, cold, wet, or windy it might be!

Date:

Astronomy

Apr. 25, 2014 Rise Set
Actual Time 7:14 AM CDT 8:29 PM CDT
Civil Twilight 6:49 AM CDT 8:54 PM CDT
Nautical Twilight 6:19 AM CDT 9:25 PM CDT
Astronomical Twilight 5:47 AM CDT 9:56 PM CDT
Moon 4:49 AM CDT (4/25) 5:07 PM CDT (4/25)
Length of Visible Light 14h 05m
Length of Day
13h 14m
Waning Crescent, 15% of the Moon is Illuminated
Apr 25
Waning Crescent
Apr 29
New
May 6
First Quarter
May 14
Full
May 21
Last Quarter

Hourly Weather History & Observations

Time (CDT) Temp. Dew Point Humidity Pressure Visibility Wind Dir Wind Speed Gust Speed Precip Events Conditions
12:15 AM 58.1 °F 34.9 °F 42% 29.97 in 10.0 mi South 6.9 mph - N/A   Clear
12:35 AM 57.2 °F 35.6 °F 44% 29.96 in 10.0 mi SW 3.5 mph - N/A   Clear
12:55 AM 56.3 °F 36.7 °F 48% 29.97 in 10.0 mi SSW 6.9 mph - N/A   Clear
1:15 AM 56.8 °F 35.6 °F 45% 29.96 in 10.0 mi SSW 4.6 mph - N/A   Clear
1:35 AM 55.6 °F 37.2 °F 50% 29.96 in 10.0 mi Calm Calm - N/A   Clear
1:55 AM 56.7 °F 36.3 °F 47% 29.96 in 10.0 mi Calm Calm - N/A   Clear
2:15 AM 55.2 °F 38.7 °F 54% 29.96 in 10.0 mi South 5.8 mph - N/A   Clear
2:35 AM 53.6 °F 37.9 °F 55% 29.95 in 10.0 mi SSE 3.5 mph - N/A   Clear
2:55 AM 53.1 °F 38.8 °F 59% 29.95 in 10.0 mi Calm Calm - N/A   Clear
3:15 AM 52.9 °F 38.3 °F 58% 29.95 in 10.0 mi Calm Calm - N/A   Clear
3:35 AM 53.2 °F 36.5 °F 53% 29.94 in 10.0 mi ENE 4.6 mph - N/A   Clear
3:55 AM 54.3 °F 36.0 °F 50% 29.93 in 10.0 mi East 5.8 mph - N/A   Clear
4:15 AM 53.6 °F 36.1 °F 52% 29.94 in 10.0 mi East 6.9 mph - N/A   Clear
4:35 AM 54.5 °F 34.7 °F 47% 29.95 in 10.0 mi ENE 4.6 mph - N/A   Clear
4:55 AM 54.1 °F 35.1 °F 49% 29.95 in 10.0 mi Calm Calm - N/A   Clear
5:15 AM 54.1 °F 37.0 °F 52% 29.95 in 10.0 mi Calm Calm - N/A   Clear
5:35 AM 55.6 °F 33.8 °F 44% 29.94 in 10.0 mi SSE 3.5 mph - N/A   Clear
5:55 AM 50.0 °F 38.7 °F 65% 29.94 in 10.0 mi West 3.5 mph - N/A   Clear
6:15 AM 50.7 °F 37.8 °F 61% 29.94 in 10.0 mi West 3.5 mph - N/A   Clear
6:35 AM 49.6 °F 38.1 °F 65% 29.95 in 10.0 mi Calm Calm - N/A   Clear
6:55 AM 49.6 °F 39.7 °F 69% 29.95 in 10.0 mi WNW 3.5 mph - N/A   Clear
7:15 AM 48.2 °F 39.6 °F 72% 29.95 in 10.0 mi West 3.5 mph - N/A   Clear
7:35 AM 48.4 °F 39.2 °F 71% 29.95 in 7.0 mi West 4.6 mph - N/A   Clear
7:55 AM 49.3 °F 39.7 °F 70% 29.96 in 10.0 mi Calm Calm - N/A   Clear
8:15 AM 51.4 °F 39.9 °F 65% 29.96 in 7.0 mi Calm Calm - N/A   Clear
8:35 AM 52.9 °F 38.1 °F 57% 29.97 in 7.0 mi Calm Calm - N/A   Clear
8:55 AM 56.5 °F 37.4 °F 49% 29.98 in 10.0 mi Calm Calm - N/A   Clear
9:15 AM 59.5 °F 37.9 °F 45% 29.98 in 7.0 mi Calm Calm - N/A   Clear
9:35 AM 63.1 °F 36.5 °F 37% 29.98 in 7.0 mi West 3.5 mph - N/A   Clear
9:55 AM 64.4 °F 37.0 °F 36% 29.98 in 10.0 mi Calm Calm - N/A   Clear
10:15 AM 66.6 °F 36.0 °F 32% 29.98 in 10.0 mi Calm Calm - N/A   Clear
10:35 AM 69.3 °F 34.3 °F 28% 29.98 in 10.0 mi Calm Calm - N/A   Clear
10:55 AM 71.2 °F 34.0 °F 25% 29.98 in 10.0 mi Calm Calm - N/A   Clear
11:15 AM 73.8 °F 34.0 °F 23% 29.98 in 10.0 mi Calm Calm - N/A   Clear
11:35 AM 76.3 °F 32.5 °F 20% 29.98 in 10.0 mi Calm Calm - N/A   Clear
11:55 AM 78.8 °F 31.1 °F 18% 29.97 in 10.0 mi Calm Calm - N/A   Clear
12:15 PM 80.6 °F 30.2 °F 16% 29.96 in 10.0 mi Calm Calm - N/A   Clear
12:35 PM 82.9 °F 31.6 °F 16% 29.95 in 10.0 mi Calm Calm - N/A   Clear
12:55 PM 84.2 °F 31.1 °F 15% 29.93 in 10.0 mi Calm Calm - N/A   Clear
1:15 PM 86.7 °F 30.2 °F 13% 29.92 in 10.0 mi Calm Calm - N/A   Clear
1:35 PM 87.6 °F 29.7 °F 12% 29.91 in 10.0 mi SSW 3.5 mph - N/A   Clear
1:55 PM 88.3 °F 29.8 °F 12% 29.90 in 10.0 mi Calm Calm - N/A   Clear
2:15 PM 89.8 °F 29.7 °F 12% 29.88 in 10.0 mi NE 3.5 mph - N/A   Clear
2:35 PM 90.5 °F 30.0 °F 12% 29.87 in 10.0 mi SE 3.5 mph - N/A   Clear
2:55 PM 91.4 °F 30.6 °F 11% 29.86 in 10.0 mi SW 4.6 mph - N/A   Clear
3:15 PM 92.3 °F 30.6 °F 11% 29.84 in 10.0 mi Calm Calm - N/A   Clear
3:35 PM 92.8 °F 31.8 °F 11% 29.84 in 10.0 mi SE 6.9 mph - N/A   Clear
3:55 PM 92.7 °F 31.1 °F 11% 29.82 in 10.0 mi West 3.5 mph - N/A   Clear
4:15 PM 92.8 °F 31.1 °F 11% 29.81 in 10.0 mi NNE 4.6 mph - N/A   Clear
4:35 PM 94.1 °F 32.0 °F 11% 29.79 in 10.0 mi North 5.8 mph - N/A   Clear
4:55 PM 93.0 °F 31.5 °F 11% 29.78 in 10.0 mi West 6.9 mph - N/A   Clear
5:15 PM 93.6 °F 32.0 °F 11% 29.77 in 10.0 mi South 4.6 mph - N/A   Clear
5:35 PM 94.1 °F 32.2 °F 11% 29.76 in 10.0 mi SSE 3.5 mph - N/A   Clear
5:55 PM 94.3 °F 32.4 °F 11% 29.75 in 10.0 mi SSW 4.6 mph - N/A   Clear
6:15 PM 94.1 °F 32.5 °F 11% 29.74 in 10.0 mi ESE 5.8 mph - N/A   Clear
6:35 PM 93.2 °F 31.8 °F 11% 29.73 in 10.0 mi ESE 3.5 mph - N/A   Clear
6:55 PM 93.2 °F 32.0 °F 11% 29.73 in 10.0 mi WSW 5.8 mph - N/A   Clear
7:15 PM 93.2 °F 31.3 °F 11% 29.73 in 10.0 mi West 13.8 mph 17.3 mph N/A   Clear
7:35 PM 91.4 °F 29.5 °F 11% 29.73 in 10.0 mi West 13.8 mph 18.4 mph N/A   Clear
7:55 PM 88.3 °F 30.9 °F 13% 29.74 in 10.0 mi West 10.4 mph - N/A   Clear
8:15 PM 84.9 °F 30.4 °F 14% 29.74 in 10.0 mi West 9.2 mph - N/A   Clear
8:35 PM 81.7 °F 29.7 °F 15% 29.75 in 10.0 mi West 4.6 mph - N/A   Clear
8:55 PM 80.6 °F 29.8 °F 16% 29.75 in 10.0 mi Calm Calm - N/A   Clear
9:15 PM 78.1 °F 30.4 °F 17% 29.75 in 10.0 mi Calm Calm - N/A   Clear
9:35 PM 76.5 °F 32.4 °F 20% 29.76 in 10.0 mi Calm Calm - N/A   Clear
9:55 PM 73.2 °F 32.7 °F 23% 29.76 in 10.0 mi Calm Calm - N/A   Clear
10:15 PM 69.6 °F 36.0 °F 29% 29.77 in 10.0 mi SE 8.1 mph - N/A   Clear
10:35 PM 72.7 °F 36.9 °F 27% 29.78 in 10.0 mi SE 12.7 mph - N/A   Clear
10:55 PM 75.0 °F 49.8 °F 41% 29.78 in 10.0 mi SE 11.5 mph - N/A   Clear
11:15 PM 77.5 °F 54.1 °F 44% 29.77 in 10.0 mi SE 13.8 mph 19.6 mph N/A   Clear
11:35 PM 77.4 °F 54.5 °F 45% 29.77 in 10.0 mi SE 17.3 mph 23.0 mph N/A   Clear
11:55 PM 77.0 °F 54.5 °F 46% 29.76 in 10.0 mi SE 17.3 mph 25.3 mph N/A   Clear